Weather History for KJMR - October, 2013

Change the Weather History Date:

Thursday, October 17, 2013

  Actual Average Record
Temperature  
Mean Temperature 38 °F -  
Max Temperature 44 °F 56 °F 84 °F (1947)
Min Temperature 32 °F 29 °F 14 °F (1939)
Degree Days  
Heating Degree Days 27    
Moisture  
Dew Point 37 °F    
Average Humidity 91    
Maximum Humidity 100    
Minimum Humidity 81    
Precipitation  
Precipitation 0.12 in - - ()
Sea Level Pressure  
Sea Level Pressure 29.82 in    
Wind  
Wind Speed 1 mph (NW)    
Max Wind Speed 10 mph    
Max Gust Speed 18 mph    
Visibility 9 miles    
Events Rain    
Averages and records for this station are not official NWS values.
T = Trace of Precipitation, MM = Missing Value Source: NWS Daily Summary

Daily Weather History Graph

Daily Weather History Graph

Search for Another Location

Airport or City:

Trip Planner

Search our weather history database for the weather conditions in past years. The results will help you decide how hot, cold, wet, or windy it might be!

Date:

Astronomy

Oct. 17, 2013 Rise Set
Actual Time 7:32 AM CDT 6:23 PM CDT
Civil Twilight 7:02 AM CDT 6:53 PM CDT
Nautical Twilight 6:28 AM CDT 7:27 PM CDT
Astronomical Twilight 5:53 AM CDT 8:02 PM CDT
Moon 5:39 PM CDT (10/17) 6:02 AM CDT (10/17)
Length of Visible Light 11h 50m
Length of Day
10h 50m
Waxing Gibbous, 98% of the Moon is Illuminated
Oct 17
Waxing Gibbous
Oct 18
Full
Oct 26
Last Quarter
Nov 3
New
Nov 9
First Quarter

Hourly Weather History & Observations

Time (CDT) Temp. Windchill Dew Point Humidity Pressure Visibility Wind Dir Wind Speed Gust Speed Precip Events Conditions
12:14 AM 32.0 °F - 32.0 °F 100% 29.87 in 7.0 mi Calm Calm - N/A   Clear
12:34 AM 32.0 °F - 30.2 °F 93% 29.86 in 10.0 mi Calm Calm - N/A   Clear
12:54 AM 32.0 °F - 30.2 °F 93% 29.86 in 7.0 mi Calm Calm - N/A   Clear
1:14 AM 32.0 °F - 30.2 °F 93% 29.85 in 7.0 mi Calm Calm - N/A   Clear
1:34 AM 32.0 °F - 30.2 °F 93% 29.85 in 7.0 mi Calm Calm - N/A   Clear
1:54 AM 32.0 °F - 30.2 °F 93% 29.85 in 7.0 mi Calm Calm - N/A   Clear
2:14 AM 32.0 °F - 30.2 °F 93% 29.85 in 10.0 mi Calm Calm - N/A   Clear
2:34 AM 32.0 °F - 30.2 °F 93% 29.85 in 10.0 mi Calm Calm - N/A   Clear
2:54 AM 32.0 °F - 30.2 °F 93% 29.85 in 7.0 mi Calm Calm - N/A   Clear
3:14 AM 32.0 °F - 30.2 °F 93% 29.85 in 7.0 mi Calm Calm - N/A   Clear
3:34 AM 32.0 °F - 32.0 °F 100% 29.85 in 7.0 mi Calm Calm - N/A   Clear
3:54 AM 32.0 °F - 32.0 °F 100% 29.84 in 7.0 mi Calm Calm - N/A   Clear
4:14 AM 32.0 °F - 32.0 °F 100% 29.84 in 10.0 mi Calm Calm - N/A   Clear
4:34 AM 32.0 °F - 32.0 °F 100% 29.84 in 7.0 mi Calm Calm - N/A   Clear
4:54 AM 33.8 °F - 32.0 °F 93% 29.83 in 7.0 mi Calm Calm - N/A   Clear
5:14 AM 33.8 °F - 32.0 °F 93% 29.83 in 7.0 mi Calm Calm - N/A   Clear
5:34 AM 33.8 °F - 32.0 °F 93% 29.82 in 10.0 mi Calm Calm - N/A   Clear
5:54 AM 33.8 °F - 33.8 °F 100% 29.82 in 7.0 mi Calm Calm - N/A   Clear
6:14 AM 35.6 °F - 33.8 °F 93% 29.82 in 7.0 mi Calm Calm - N/A   Mostly Cloudy
6:34 AM 35.6 °F - 33.8 °F 93% 29.82 in 7.0 mi Calm Calm - N/A   Scattered Clouds
6:54 AM 35.6 °F - 33.8 °F 93% 29.82 in 7.0 mi Calm Calm - N/A   Clear
7:14 AM 33.8 °F - 32.0 °F 93% 29.82 in 7.0 mi Calm Calm - N/A   Clear
7:34 AM 33.8 °F - 32.0 °F 93% 29.82 in 10.0 mi Calm Calm - N/A   Scattered Clouds
7:54 AM 33.8 °F - 32.0 °F 93% 29.82 in 7.0 mi Calm Calm - N/A   Clear
8:14 AM 35.6 °F - 33.8 °F 93% 29.82 in 5.0 mi Calm Calm - N/A   Mostly Cloudy
8:34 AM 35.6 °F - 33.8 °F 93% 29.82 in 7.0 mi Calm Calm - N/A   Overcast
8:54 AM 35.6 °F - 33.8 °F 93% 29.82 in 10.0 mi Calm Calm - N/A   Overcast
9:14 AM 37.4 °F - 35.6 °F 93% 29.82 in 10.0 mi Calm Calm - N/A   Scattered Clouds
9:34 AM 37.4 °F - 35.6 °F 93% 29.82 in 10.0 mi Calm Calm - N/A   Scattered Clouds
9:54 AM 39.2 °F 37.0 °F 37.4 °F 93% 29.81 in 10.0 mi SSW 3.5 mph - N/A   Overcast
10:14 AM 41.0 °F 37.1 °F 37.4 °F 87% 29.82 in 10.0 mi West 5.8 mph - N/A   Overcast
10:34 AM 42.8 °F - 37.4 °F 81% 29.82 in 10.0 mi Calm Calm - N/A   Overcast
10:54 AM 42.8 °F - 37.4 °F 81% 29.82 in 10.0 mi Calm Calm - N/A   Overcast
11:14 AM 44.6 °F - 41.0 °F 87% 29.82 in 10.0 mi Calm Calm - N/A   Overcast
11:34 AM 44.6 °F - 39.2 °F 81% 29.81 in 10.0 mi Calm Calm - N/A   Overcast
11:54 AM 44.6 °F - 39.2 °F 81% 29.81 in 10.0 mi Calm Calm - N/A Rain Rain
12:14 PM 44.6 °F 42.2 °F 39.2 °F 81% 29.81 in 10.0 mi NNW 4.6 mph - N/A   Overcast
12:34 PM 44.6 °F 43.1 °F 39.2 °F 81% 29.81 in 10.0 mi NW 3.5 mph - N/A   Light Drizzle
12:54 PM 44.6 °F - 39.2 °F 81% 29.80 in 10.0 mi Calm Calm - N/A Rain Light Rain
1:14 PM 44.6 °F 43.1 °F 41.0 °F 87% 29.80 in 10.0 mi WNW 3.5 mph - N/A Rain Rain
1:34 PM 44.6 °F 42.2 °F 41.0 °F 87% 29.80 in 10.0 mi NW 4.6 mph - N/A Rain Light Rain
1:54 PM 44.6 °F 43.1 °F 41.0 °F 87% 29.80 in 10.0 mi WNW 3.5 mph - 0.01 in Rain Light Rain
2:14 PM 44.6 °F 42.2 °F 41.0 °F 87% 29.80 in 10.0 mi West 4.6 mph - N/A Rain Light Rain
2:34 PM 44.6 °F 42.2 °F 42.8 °F 93% 29.80 in 10.0 mi WNW 4.6 mph - 0.01 in Rain Rain
2:54 PM 44.6 °F 41.4 °F 42.8 °F 93% 29.79 in 10.0 mi WNW 5.8 mph - 0.02 in Rain Light Rain
3:14 PM 44.6 °F 42.2 °F 42.8 °F 93% 29.79 in 10.0 mi WNW 4.6 mph - N/A Rain Light Rain
3:34 PM 44.6 °F 43.1 °F 42.8 °F 93% 29.79 in 10.0 mi WNW 3.5 mph - 0.01 in Rain Rain
3:54 PM 44.6 °F 43.1 °F 42.8 °F 93% 29.79 in 10.0 mi WNW 3.5 mph - 0.01 in   Light Drizzle
4:14 PM 44.6 °F 42.2 °F 42.8 °F 93% 29.80 in 10.0 mi NW 4.6 mph - N/A   Light Drizzle
4:34 PM 44.6 °F 42.2 °F 42.8 °F 93% 29.80 in 10.0 mi NW 4.6 mph - N/A   Light Drizzle
4:54 PM 44.6 °F - 42.8 °F 93% 29.79 in 10.0 mi Calm Calm - 0.01 in Rain Rain
5:14 PM 44.6 °F - 42.8 °F 93% 29.79 in 10.0 mi Calm Calm - N/A Rain Rain
5:34 PM 44.6 °F - 42.8 °F 93% 29.80 in 10.0 mi Calm Calm - N/A   Light Drizzle
5:54 PM 44.6 °F - 42.8 °F 93% 29.80 in 10.0 mi Calm Calm - N/A   Mostly Cloudy
6:14 PM 44.6 °F - 42.8 °F 93% 29.80 in 10.0 mi Calm Calm - N/A   Overcast
6:34 PM 44.6 °F - 42.8 °F 93% 29.80 in 10.0 mi Calm Calm - N/A Rain Light Rain
6:54 PM 44.6 °F - 42.8 °F 93% 29.81 in 10.0 mi Calm Calm - N/A   Light Drizzle
7:14 PM 44.6 °F - 42.8 °F 93% 29.82 in 7.0 mi Calm Calm - N/A   Light Drizzle
7:34 PM 44.6 °F 40.2 °F 42.8 °F 93% 29.82 in 10.0 mi NNW 8.1 mph - N/A   Drizzle
7:54 PM 42.8 °F 38.0 °F 41.0 °F 93% 29.82 in 10.0 mi NNW 8.1 mph - N/A   Drizzle
8:14 PM 42.8 °F 37.0 °F 41.0 °F 93% 29.83 in 10.0 mi NNW 10.4 mph - 0.01 in Rain Light Rain
8:34 PM 42.8 °F 38.0 °F 41.0 °F 93% 29.83 in 10.0 mi NNW 8.1 mph - 0.02 in   Drizzle
8:54 PM 41.0 °F 36.4 °F 37.4 °F 87% 29.84 in 10.0 mi NNW 6.9 mph - 0.02 in   Drizzle
9:14 PM 41.0 °F 35.8 °F 37.4 °F 87% 29.84 in 10.0 mi NNW 8.1 mph - 0.01 in Rain Rain
9:34 PM 41.0 °F 35.8 °F 37.4 °F 87% 29.85 in 10.0 mi NNW 8.1 mph - 0.01 in   Drizzle
9:54 PM 39.2 °F 33.0 °F 37.4 °F 93% 29.85 in 10.0 mi North 9.2 mph - 0.02 in   Drizzle
10:14 PM 39.2 °F 34.2 °F 35.6 °F 87% 29.85 in 10.0 mi North 6.9 mph 18.4 mph N/A   Drizzle
10:34 PM 37.4 °F 32.1 °F 35.6 °F 93% 29.85 in 10.0 mi North 6.9 mph - 0.01 in Rain Light Rain
10:54 PM 37.4 °F 33.8 °F 35.6 °F 93% 29.85 in 10.0 mi North 4.6 mph - 0.02 in   Drizzle
11:14 PM 37.4 °F 32.8 °F 35.6 °F 93% 29.86 in 10.0 mi North 5.8 mph - N/A   Drizzle
11:34 PM 37.4 °F 30.8 °F 35.6 °F 93% 29.86 in 10.0 mi NNW 9.2 mph - N/A Rain Light Rain
11:54 PM 37.4 °F 32.1 °F 33.8 °F 87% 29.86 in 10.0 mi NNW 6.9 mph - 0.01 in   Drizzle